Omaha, IA

11:34 AM CDT on June 27, 2017 (GMT -0500)
Eppley Airfield

Weather History for KOMA - July, 2013

Change the Weather History Date:

Monday, July 15, 2013

  Actual Average Record
Temperature  
Mean Temperature 76 °F 77 °F  
Max Temperature 89 °F 88 °F 107 °F (1934)
Min Temperature 63 °F 67 °F 50 °F (2014)
Degree Days  
Heating Degree Days 0 0  
Month to date heating degree days 0 0  
Since 1 June heating degree days 16 17  
Since 1 July heating degree days 0 0  
Cooling Degree Days 11 12  
Month to date cooling degree days 193 176  
Year to date cooling degree days 524 488  
Since 1 June cooling degree days 428 406  
Growing Degree Days 26 (Base 50)    
Moisture  
Dew Point 65 °F    
Average Humidity 67    
Maximum Humidity 87    
Minimum Humidity 46    
Precipitation  
Precipitation 0.00 in 0.13 in 1.72 in (1950)
Month to date precipitation 0.35 1.86  
Year to date precipitation 19.43 17.32  
Snow  
Snow 0.00 in 0.00 in - ()
Month to date snowfall 0.0 0.0  
Since 1 July snowfall 0.0 0.0  
Snow Depth 0.00 in    
Sea Level Pressure  
Sea Level Pressure 30.15 in    
Wind  
Wind Speed 5 mph (SE)    
Max Wind Speed 16 mph    
Max Gust Speed 22 mph    
Visibility 10 miles    
Events      
T = Trace of Precipitation, MM = Missing Value Source: NWS Daily Summary

Daily Weather History Graph

Daily Weather History Graph

Search for Another Location

Airport or City:

Trip Planner

Search our weather history database for the weather conditions in past years. The results will help you decide how hot, cold, wet, or windy it might be!

Date:

Astronomy

Jul. 15, 2013 Rise Set
Actual Time 6:03 AM CDT 8:55 PM CDT
Civil Twilight 5:30 AM CDT 9:27 PM CDT
Nautical Twilight 4:49 AM CDT 10:08 PM CDT
Astronomical Twilight 4:01 AM CDT 10:56 PM CDT
Moon 1:29 PM CDT (7/15) 12:03 AM CDT (7/15)
Length of Visible Light 15h 56m
Length of Day
14h 51m
Waxing Crescent, 45% of the Moon is Illuminated
Jul 15
Waxing Crescent
Jul 15
First Quarter
Jul 22
Full
Jul 29
Last Quarter
Aug 6
New

Hourly Weather History & Observations

Time (CDT) Temp. Heat Index Dew Point Humidity Pressure Visibility Wind Dir Wind Speed Gust Speed Precip Events Conditions
12:52 AM 73.0 °F - 61.0 °F 66% 30.14 in 10.0 mi SSE 6.9 mph - N/A   Clear
1:52 AM 72.0 °F - 61.0 °F 68% 30.15 in 10.0 mi Calm Calm - N/A   Clear
2:52 AM 70.0 °F - 61.0 °F 73% 30.15 in 10.0 mi SE 3.5 mph - N/A   Clear
3:52 AM 70.0 °F - 61.0 °F 73% 30.14 in 10.0 mi ESE 3.5 mph - N/A   Clear
4:52 AM 69.1 °F - 61.0 °F 75% 30.15 in 10.0 mi East 4.6 mph - N/A   Clear
5:52 AM 64.9 °F - 61.0 °F 87% 30.17 in 10.0 mi Calm Calm - N/A   Clear
6:52 AM 64.9 °F - 61.0 °F 87% 30.17 in 8.0 mi Calm Calm - N/A   Clear
7:52 AM 72.0 °F - 62.1 °F 71% 30.18 in 10.0 mi Calm Calm - N/A   Clear
8:52 AM 75.9 °F - 64.9 °F 69% 30.19 in 10.0 mi Calm Calm - N/A   Partly Cloudy
9:52 AM 79.0 °F - 66.0 °F 64% 30.19 in 10.0 mi SSE 3.5 mph - N/A   Partly Cloudy
10:52 AM 82.0 °F 84.9 °F 68.0 °F 62% 30.18 in 10.0 mi Variable 5.8 mph - N/A   Partly Cloudy
11:52 AM 84.0 °F 86.5 °F 66.9 °F 56% 30.17 in 10.0 mi SSE 8.1 mph - N/A   Scattered Clouds
12:52 PM 87.1 °F 89.9 °F 66.9 °F 51% 30.16 in 10.0 mi ESE 10.4 mph - N/A   Mostly Cloudy
1:52 PM 86.0 °F 88.2 °F 66.0 °F 51% 30.15 in 10.0 mi SE 11.5 mph - N/A   Mostly Cloudy
2:52 PM 88.0 °F 89.6 °F 64.9 °F 46% 30.13 in 10.0 mi SSE 10.4 mph - N/A   Mostly Cloudy
3:52 PM 87.1 °F 89.9 °F 66.9 °F 51% 30.12 in 10.0 mi ESE 11.5 mph 20.7 mph N/A   Mostly Cloudy
4:52 PM 86.0 °F 88.2 °F 66.0 °F 51% 30.12 in 10.0 mi SE 11.5 mph - N/A   Mostly Cloudy
5:52 PM 86.0 °F 88.2 °F 66.0 °F 51% 30.11 in 10.0 mi South 8.1 mph - N/A   Mostly Cloudy
6:52 PM 86.0 °F 89.4 °F 68.0 °F 55% 30.10 in 10.0 mi Variable 3.5 mph - N/A   Scattered Clouds
7:52 PM 86.0 °F 88.2 °F 66.0 °F 51% 30.11 in 10.0 mi SSE 9.2 mph - N/A   Scattered Clouds
8:52 PM 82.9 °F 85.0 °F 66.0 °F 56% 30.11 in 10.0 mi SSE 5.8 mph - N/A   Scattered Clouds
9:52 PM 79.0 °F - 68.0 °F 69% 30.12 in 10.0 mi ESE 3.5 mph - N/A   Partly Cloudy
10:52 PM 78.1 °F - 68.0 °F 71% 30.14 in 10.0 mi SE 4.6 mph - N/A   Partly Cloudy
11:52 PM 77.0 °F - 68.0 °F 74% 30.15 in 10.0 mi SE 4.6 mph - N/A   Partly Cloudy